Date String (YYYY-MM-DD hh:mm:ss) UTC,Instrument flags,Ambient pressure (hPa),Sample flow (lpm),Bypass flow (lpm),Sample temperature (°C),Ambient temperature (°C),ASC tube jacket temperature (°C),LED temperature (°C),Box temperature (°C),Sample RH (%),Span deviation,Mass concentration (μg/m³),Mass concentration (μg/m³),Mass concentration (μg/m³)
DateTimeUTC,F1_M11,P_M11,Q1_M11,Q2_M11,T1_M11,T2_M11,T3_M11,T4_M11,T5_M11,U1_M11,ZSPAN_M11,X0_M11,X2_M11,X1_M11
2022-10-13 18:00:00,,0831.2,5.00,0.00,28.6,27.4,00.0,37.3,30.5,14.4,0000.0,0011.29,0005.69,0005.10
2022-10-13 18:01:00,,0831.2,5.00,0.00,28.6,27.4,00.0,37.3,30.5,14.4,0000.0,0011.74,0005.69,0005.10
2022-10-13 18:02:00,,0831.2,5.01,0.00,28.6,27.4,00.0,37.3,30.5,14.5,0000.0,0011.72,0005.68,0005.10
2022-10-13 18:03:00,,0831.2,5.01,0.00,28.6,27.4,00.0,37.3,30.6,14.4,0000.0,0011.48,0005.62,0005.09
2022-10-13 18:04:00,,0831.2,5.00,0.00,28.6,27.5,00.0,37.3,30.6,14.5,0000.0,0010.49,0005.58,0005.08
2022-10-13 18:05:00,,0831.2,4.99,0.00,28.6,27.4,00.0,37.4,30.6,14.2,0000.0,0010.49,0005.60,0005.09
2022-10-13 18:06:00,,0831.2,4.99,0.00,28.6,27.4,00.0,37.4,30.6,14.3,0000.0,0011.34,0005.65,0005.12
2022-10-13 18:07:00,,0831.2,5.00,0.00,28.7,27.5,00.0,37.4,30.6,14.5,0000.0,0011.23,0005.65,0005.13
2022-10-13 18:08:00,,0831.2,5.00,0.00,28.7,27.5,00.0,37.4,30.6,14.4,0000.0,0011.40,0005.63,0005.13
2022-10-13 18:09:00,,0831.2,5.00,0.00,28.7,27.5,00.0,37.4,30.6,14.3,0000.0,0011.32,0005.63,0005.13
2022-10-13 18:10:00,,0831.2,5.00,0.00,28.7,27.5,00.0,37.4,30.6,14.3,0000.0,0011.68,0005.65,0005.13
2022-10-13 18:11:00,,0831.2,5.00,0.00,28.7,27.5,00.0,37.4,30.7,14.4,0000.0,0011.83,0005.69,0005.12
2022-10-13 18:12:00,,0831.2,5.00,0.00,28.7,27.5,00.0,37.4,30.7,14.4,0000.0,0011.92,0005.72,0005.12
2022-10-13 18:13:00,,0831.1,5.00,0.00,28.7,27.6,00.0,37.5,30.7,14.2,0000.0,0011.99,0005.71,0005.13
2022-10-13 18:14:00,,0831.1,5.00,0.00,28.8,27.6,00.0,37.5,30.7,14.1,0000.0,0012.17,0005.74,0005.14
2022-10-13 18:15:00,,0831.1,5.00,0.00,28.8,27.6,00.0,37.5,30.7,14.2,0000.0,0012.20,0005.75,0005.15
2022-10-13 18:16:00,,0831.1,5.00,0.00,28.8,27.6,00.0,37.5,30.7,14.2,0000.0,0012.12,0005.74,0005.14
2022-10-13 18:17:00,,0831.0,4.98,0.00,28.8,27.6,00.0,37.5,30.8,13.9,0000.0,0011.56,0005.73,0005.13
2022-10-13 18:18:00,,0831.0,5.00,0.00,28.8,27.7,00.0,37.5,30.8,14.0,0000.0,0011.09,0005.72,0005.12
2022-10-13 18:19:00,,0831.0,5.00,0.00,28.8,27.7,00.0,37.5,30.8,14.2,0000.0,0010.86,0005.73,0005.11
2022-10-13 18:20:00,,0831.0,5.00,0.00,28.9,27.7,00.0,37.6,30.8,14.0,0000.0,0010.96,0005.74,0005.12
2022-10-13 18:21:00,,0831.0,5.00,0.00,28.9,27.8,00.0,37.6,30.8,14.0,0000.0,0010.73,0005.72,0005.12
2022-10-13 18:22:00,,0831.0,5.00,0.00,28.9,27.8,00.0,37.6,30.9,13.9,0000.0,0010.32,0005.67,0005.13
2022-10-13 18:23:00,,0831.0,5.01,0.00,28.9,27.8,00.0,37.6,30.9,13.6,0000.0,0009.80,0005.64,0005.15
2022-10-13 18:24:00,,0831.0,5.00,0.00,28.9,27.8,00.0,37.6,30.9,13.5,0000.0,0009.86,0005.69,0005.18
2022-10-13 18:25:00,,0830.9,5.00,0.00,29.0,27.9,00.0,37.6,30.9,13.5,0000.0,0010.04,0005.76,0005.22
2022-10-13 18:26:00,,0830.9,5.00,0.00,29.0,27.9,00.0,37.6,30.9,13.4,0000.0,0010.37,0005.82,0005.23
2022-10-13 18:27:00,,0830.9,5.00,0.00,29.0,27.9,00.0,37.7,31.0,13.8,0000.0,0011.26,0005.85,0005.25
2022-10-13 18:28:00,,0830.9,5.00,0.00,29.0,27.9,00.0,37.7,31.0,13.9,0000.0,0011.53,0005.86,0005.26
2022-10-13 18:29:00,,0830.9,5.00,0.00,29.0,27.9,00.0,37.7,31.0,13.7,0000.0,0011.78,0005.90,0005.29
2022-10-13 18:30:00,,0830.9,5.00,0.00,29.1,28.0,00.0,37.7,31.0,13.6,0000.6,0011.76,0005.93,0005.31
2022-10-13 18:31:00,,0830.8,5.00,0.00,29.1,28.0,00.0,37.7,31.0,13.7,0000.1,0011.76,0005.97,0005.33
2022-10-13 18:32:00,,0830.8,5.00,0.00,29.1,28.0,00.0,37.8,31.0,13.8,0001.7,0012.08,0005.98,0005.33
2022-10-13 18:33:00,,0830.8,5.00,0.00,29.1,28.0,00.0,37.8,31.0,13.7,0001.6,0012.99,0005.99,0005.35
2022-10-13 18:34:00,,0830.8,5.00,0.00,29.1,28.0,00.0,37.8,31.0,13.6,0001.1,0013.27,0006.03,0005.37
2022-10-13 18:35:00,,0830.8,5.00,0.00,29.1,28.0,00.0,37.8,31.0,13.7,0000.0,0013.37,0006.05,0005.36
2022-10-13 18:36:00,,0830.8,5.00,0.00,29.1,28.0,00.0,37.8,31.1,13.6,0000.0,0013.28,0006.01,0005.35
2022-10-13 18:37:00,,0830.7,5.00,0.00,29.1,28.0,00.0,37.9,31.1,13.7,0000.0,0013.15,0005.99,0005.35
2022-10-13 18:38:00,,0830.8,5.00,0.00,29.1,28.0,00.0,37.9,31.1,13.5,0000.0,0012.30,0006.04,0005.35
2022-10-13 18:39:00,,0830.8,5.00,0.00,29.2,28.0,00.0,37.9,31.1,13.5,0000.0,0012.45,0006.06,0005.38
2022-10-13 18:40:00,,0830.7,5.00,0.00,29.2,28.0,00.0,37.9,31.1,13.5,0000.0,0012.33,0006.05,0005.39
2022-10-13 18:41:00,,0830.7,5.00,0.00,29.2,28.0,00.0,37.9,31.1,13.5,0000.0,0012.40,0006.06,0005.40
2022-10-13 18:42:00,,0830.7,5.01,0.00,29.2,28.0,00.0,37.9,31.1,13.4,0000.0,0012.41,0006.06,0005.40
2022-10-13 18:43:00,,0830.6,5.01,0.00,29.2,28.0,00.0,37.9,31.1,13.3,0000.0,0012.17,0006.10,0005.44
2022-10-13 18:44:00,,0830.6,5.01,0.00,29.2,28.1,00.0,37.9,31.1,13.6,0000.0,0011.72,0006.14,0005.45
2022-10-13 18:45:00,,0830.6,4.98,0.00,29.2,28.1,00.0,38.0,31.2,13.6,0000.0,0012.16,0006.13,0005.45
2022-10-13 18:46:00,,0830.6,5.00,0.00,29.3,28.1,00.0,38.0,31.2,13.6,0000.0,0011.77,0006.09,0005.45
2022-10-13 18:47:00,,0830.5,5.00,0.00,29.3,28.1,00.0,38.0,31.2,13.6,0000.0,0011.44,0006.07,0005.44
2022-10-13 18:48:00,,0830.5,5.00,0.00,29.3,28.1,00.0,38.0,31.2,13.7,0000.0,0011.50,0006.07,0005.43
2022-10-13 18:49:00,,0830.5,5.00,0.00,29.3,28.2,00.0,38.0,31.2,13.7,0000.0,0011.37,0006.03,0005.43
2022-10-13 18:50:00,,0830.4,5.00,0.00,29.3,28.2,00.0,38.0,31.2,13.8,0000.0,0010.83,0006.01,0005.43
2022-10-13 18:51:00,,0830.4,5.00,0.00,29.3,28.2,00.0,38.0,31.2,13.7,0000.0,0010.75,0006.04,0005.43
2022-10-13 18:52:00,,0830.4,5.00,0.00,29.4,28.2,00.0,38.1,31.3,13.4,0000.0,0010.95,0006.05,0005.42
2022-10-13 18:53:00,,0830.4,5.00,0.00,29.4,28.3,00.0,38.1,31.3,12.7,0000.0,0011.63,0006.09,0005.42
2022-10-13 18:54:00,,0830.4,4.99,0.00,29.4,28.3,00.0,38.1,31.3,12.8,0000.0,0011.59,0006.07,0005.40
2022-10-13 18:55:00,,0830.5,5.00,0.00,29.4,28.3,00.0,38.1,31.3,12.9,0000.0,0011.24,0006.01,0005.37
2022-10-13 18:56:00,,0830.3,5.00,0.00,29.4,28.4,00.0,38.1,31.3,12.8,0000.0,0010.53,0005.99,0005.35
2022-10-13 18:57:00,,0830.3,5.01,0.00,29.5,28.4,00.0,38.1,31.4,12.9,0000.0,0010.75,0006.00,0005.33
2022-10-13 18:58:00,,0830.3,5.00,0.00,29.5,28.4,00.0,38.2,31.4,12.8,0000.0,0011.04,0006.00,0005.32
2022-10-13 18:59:00,,0830.3,5.00,0.00,29.5,28.4,00.0,38.2,31.4,13.0,0000.0,0011.00,0005.97,0005.31
